This demonstration page uses our WeatherBlox Daily Observations layout. Learn more.

Hourly Observations for January 19, 2020

Temp ( °F °C ) Dew Point ( °F °C ) Humidity (%) Winds ( mph kmh ) Pressure ( in mb ) Visibility ( mi km ) Precip ( " mm )
12:54 am 00:54 Clear 14 -10 2 -16.7 58 58 NNW 14 22 30.52 1034 10 16.0934 0 0
1:54 am 01:54 Clear 12 -11.1 2 -16.7 64 64 NW 9 15 30.55 1034 10 16.0934 0 0
2:54 am 02:54 Clear 10 -12.2 0 -17.8 63 63 NW 13 20 30.58 1035 10 16.0934 0 0
3:54 am 03:54 Clear 8 -13.3 -2 -18.9 63 63 NNW 12 19 30.6 1036 10 16.0934 0 0
4:54 am 04:54 Clear 6 -14.4 -5 -20.6 60 60 NNW 14 22 30.62 1037 10 16.0934 0 0
5:54 am 05:54 Clear 5 -15 -6 -21.1 60 60 NNW 15 24 30.64 1038 10 16.0934 0 0
6:54 am 06:54 Clear 4 -15.6 -7 -21.7 60 60 NNW 12 19 30.66 1038 10 16.0934 0 0
7:54 am 07:54 Sunny 3 -16.1 -8 -22.2 60 60 NNW 15 24 30.68 1039 10 16.0934 0 0
8:54 am 08:54 Sunny 4 -15.6 -8 -22.2 57 57 NNW 14 22 30.7 1040 10 16.0934 0 0
9:54 am 09:54 Sunny 5 -15 -7 -21.7 57 57 NNW 17 28 30.72 1040 10 16.0934 0 0
10:54 am 10:54 Sunny 7 -13.9 -7 -21.7 52 52 NNW 15 24 30.74 1041 10 16.0934 0 0
11:54 am 11:54 Sunny 8 -13.3 -5 -20.6 55 55 NW 13 20 30.74 1041 10 16.0934 0 0
12:54 pm 12:54 Sunny 10 -12.2 -3 -19.4 55 55 NNW 14 22 30.73 1041 10 16.0934 0 0
1:54 pm 13:54 Sunny 11 -11.7 -2 -18.9 55 55 N 10 17 30.7 1040 10 16.0934 0 0
2:54 pm 14:54 Sunny 12 -11.1 -2 -18.9 53 53 NNW 8 13 30.69 1039 10 16.0934 0 0
3:54 pm 15:54 Sunny 12 -11.1 0 -17.8 58 58 N 9 15 30.69 1039 10 16.0934 0 0
4:54 pm 16:54 Sunny 11 -11.7 -1 -18.3 58 58 N 8 13 30.7 1040 10 16.0934 0 0
5:54 pm 17:54 Clear 9 -12.8 -2 -18.9 61 61 NNW 8 13 30.71 1040 10 16.0934 0 0
6:54 pm 18:54 Mostly Clear 6 -14.4 -2 -18.9 69 69 NNW 5 7 30.73 1041 10 16.0934 0 0
7:54 pm 19:54 Cloudy 8 -13.3 -1 -18.3 66 66 N 6 9 30.73 1041 10 16.0934 0 0
8:54 pm 20:54 Cloudy 9 -12.8 -1 -18.3 64 64 NNE 9 15 30.73 1041 10 16.0934 0 0
9:54 pm 21:54 Cloudy 9 -12.8 -2 -18.9 61 61 NE 6 9 30.73 1041 10 16.0934 0 0
10:54 pm 22:54 Cloudy 9 -12.8 -2 -18.9 61 61 NNE 5 7 30.72 1040 10 16.0934 0 0
11:54 pm 23:54 Cloudy 9 -12.8 -2 -18.9 61 61 NNE 5 7 30.72 1040 10 16.0934 0 0

Powered by AerisWeather